Location: Noordwijk
(52.2400°N, 4.4500°E)
Time: 01:20:58
(UTC+00:00)

DELFI C3 - Visible Passes

Search period start: 10 December 2022 00:00
Search period end: 20 December 2022 00:00
Orbit: 502 x 517 km, 97.3° (Epoch: 09 December)

Date Brightness Start Highest point End Pass type
(mag) Time Alt. Az. Time Alt. Az. Time Alt. Az.
10 Dec ? 06:54:23 10° NNE 06:58:00 48° E 07:01:36 10° S visible
10 Dec ? 17:44:36 23° N 17:44:36 23° N 17:46:12 10° N visible
11 Dec ? 06:37:48 10° NNE 06:41:11 32° E 06:44:33 10° SSE visible
11 Dec ? 17:27:41 21° NNE 17:27:41 21° NNE 17:29:16 10° N visible
11 Dec ? 19:02:34 12° NW 19:02:34 12° NW 19:03:01 10° NW visible
12 Dec ? 06:21:19 10° NE 06:24:18 22° E 06:27:15 10° SE visible
12 Dec ? 17:10:44 18° NNE 17:10:44 18° NNE 17:12:13 10° N visible
12 Dec ? 18:45:35 16° NW 18:45:35 16° NW 18:46:28 10° NNW visible
13 Dec ? 06:05:02 10° NE 06:07:19 15° E 06:09:35 10° SE visible
13 Dec ? 16:53:42 15° NE 16:53:42 15° NE 16:54:59 10° NNE visible
13 Dec ? 18:28:34 19° NNW 18:28:34 19° NNW 18:29:46 10° NNW visible
14 Dec ? 05:49:33 10° ENE 05:50:15 10° E 05:50:58 10° E visible
14 Dec ? 16:36:37 12° NE 16:36:37 12° NE 16:37:23 10° NNE visible
14 Dec ? 18:11:29 22° NNW 18:11:29 22° NNW 18:12:56 10° NNW visible
15 Dec ? 17:54:20 25° N 17:54:20 25° N 17:55:59 10° N visible
15 Dec?19:29:11NW19:29:11NW19:21:54SSWvisible
16 Dec ? 06:47:18 10° NNE 06:50:52 41° E 06:54:24 10° S visible
16 Dec ? 17:37:07 25° NNE 17:37:07 25° NNE 17:38:55 10° N visible
16 Dec ? 19:11:58 12° NW 19:11:58 12° NW 19:12:18 10° NW visible
17 Dec ? 06:30:33 10° NE 06:33:47 27° E 06:37:01 10° SSE visible
17 Dec ? 17:19:50 22° NNE 17:19:50 22° NNE 17:21:42 10° N visible
17 Dec ? 18:54:41 16° NW 18:54:41 16° NW 18:55:40 10° NNW visible
18 Dec ? 06:13:55 10° NE 06:16:38 19° E 06:19:21 10° SE visible
18 Dec ? 17:02:30 19° NE 17:02:30 19° NE 17:04:22 10° NNE visible
18 Dec ? 18:37:20 21° NW 18:37:20 21° NW 18:38:50 10° NNW visible
19 Dec ? 05:57:35 10° ENE 05:59:24 13° E 06:01:13 10° ESE visible
19 Dec ? 16:45:04 15° NE 16:45:04 15° NE 16:46:47 10° NNE visible
19 Dec ? 18:19:54 29° NNW 18:19:54 29° NNW 18:21:51 10° NNW visible
